Joint Base Elmendorf-Richardson, AK

12:27 AM AKST on February 24, 2017 (GMT -0900)
Elmendorf Air Force Base

Weather History for PAED - March, 2013

Change the Weather History Date:

Friday, March 15, 2013

  Actual Average Record
Temperature  
Mean Temperature 16 °F -  
Max Temperature 30 °F 29 °F 46 °F (1998)
Min Temperature 3 °F 14 °F -18 °F (1964)
Degree Days  
Heating Degree Days 48    
Moisture  
Dew Point 3 °F    
Average Humidity 51    
Maximum Humidity 77    
Minimum Humidity 29    
Precipitation  
Precipitation 0.00 in - - ()
Sea Level Pressure  
Sea Level Pressure 29.77 in    
Wind  
Wind Speed 6 mph (ENE)    
Max Wind Speed 9 mph    
Max Gust Speed -    
Visibility 10 miles    
Events      
Averages and records for this station are not official NWS values.
T = Trace of Precipitation, MM = Missing Value Source: NWS Daily Summary

Daily Weather History Graph

Daily Weather History Graph

Search for Another Location

Airport or City:

Trip Planner

Search our weather history database for the weather conditions in past years. The results will help you decide how hot, cold, wet, or windy it might be!

Date:

Astronomy

Mar. 15, 2013 Rise Set
Actual Time 8:14 AM AKDT 8:02 PM AKDT
Civil Twilight 7:31 AM AKDT 8:45 PM AKDT
Nautical Twilight 6:40 AM AKDT 9:36 PM AKDT
Astronomical Twilight 5:45 AM AKDT 10:32 PM AKDT
Moon 8:56 AM AKDT (3/15) 12:37 AM AKDT (3/15)
Length of Visible Light 13h 13m
Length of Day
11h 47m
Waxing Crescent, 16% of the Moon is Illuminated
Mar 15
Waxing Crescent
Mar 19
First Quarter
Mar 27
Full
Apr 2
Last Quarter
Apr 10
New

Hourly Weather History & Observations

Time (AKDT) Temp. Windchill Dew Point Humidity Pressure Visibility Wind Dir Wind Speed Gust Speed Precip Events Conditions
12:55 AM 19.6 °F 11.7 °F 7.2 °F 59% 29.85 in 10.0 mi Variable 5.8 mph - N/A   Clear
1:55 AM 18.5 °F 7.5 °F 8.6 °F 65% 29.84 in 10.0 mi NE 9.2 mph - N/A   Clear
2:55 AM 18.3 °F 7.3 °F 7.0 °F 61% 29.82 in 10.0 mi ENE 9.2 mph - N/A   Clear
3:55 AM 18.3 °F 9.1 °F 5.9 °F 58% 29.80 in 10.0 mi ENE 6.9 mph - N/A   Clear
4:55 AM 17.2 °F 6.0 °F 5.7 °F 61% 29.79 in 10.0 mi NE 9.2 mph - N/A   Clear
5:55 AM 16.5 °F 6.0 °F 5.0 °F 61% 29.79 in 10.0 mi ENE 8.1 mph - N/A   Clear
6:55 AM 8.6 °F - 1.4 °F 73% 29.78 in 10.0 mi Calm Calm - N/A   Clear
7:55 AM 3.0 °F - -3.3 °F 75% 29.77 in 10.0 mi Calm Calm - N/A   Clear
8:55 AM 4.1 °F -3.2 °F -1.7 °F 77% 29.75 in 10.0 mi ESE 3.5 mph - N/A   Clear
9:55 AM 8.8 °F - 1.2 °F 71% 29.74 in 10.0 mi Calm Calm - N/A   Clear
10:55 AM 20.5 °F 10.8 °F 3.0 °F 47% 29.74 in 10.0 mi ENE 8.1 mph - N/A   Clear
11:55 AM 23.0 °F 13.9 °F 1.8 °F 40% 29.74 in 10.0 mi East 8.1 mph - N/A   Clear
12:55 PM 25.9 °F 17.4 °F 1.2 °F 35% 29.73 in 10.0 mi ENE 8.1 mph - N/A   Clear
1:55 PM 27.5 °F 18.6 °F -0.0 °F 31% 29.72 in 10.0 mi ENE 9.2 mph - N/A   Clear
2:55 PM 28.2 °F 21.0 °F 6.1 °F 39% 29.73 in 10.0 mi ENE 6.9 mph - N/A   Clear
3:55 PM 28.9 °F 21.9 °F 3.9 °F 35% 29.73 in 10.0 mi NE 6.9 mph - N/A   Clear
4:55 PM 30.0 °F 22.4 °F 3.7 °F 33% 29.73 in 10.0 mi NE 8.1 mph - N/A   Clear
5:55 PM 29.5 °F 21.8 °F 0.7 °F 29% 29.75 in 10.0 mi ENE 8.1 mph - N/A   Clear
6:55 PM 28.4 °F 21.2 °F 1.9 °F 32% 29.76 in 10.0 mi ENE 6.9 mph - N/A   Clear
7:55 PM 26.1 °F 17.6 °F 3.7 °F 38% 29.77 in 10.0 mi NE 8.1 mph - N/A   Clear
8:55 PM 23.7 °F 14.7 °F 3.4 °F 42% 29.78 in 10.0 mi ENE 8.1 mph - N/A   Clear
9:55 PM 21.2 °F 14.9 °F 0.1 °F 40% 29.79 in 10.0 mi East 4.6 mph - N/A   Clear
10:55 PM 15.3 °F - 2.1 °F 56% 29.81 in 10.0 mi Calm Calm - N/A   Clear
11:55 PM 14.5 °F - 2.1 °F 58% 29.83 in 10.0 mi Calm Calm - N/A   Clear